FW8327 Weather Reports


Display with metric or nautical units.
time (UTC)temp
F
wind
direction
speed
MPH
gust
MPH
rain 1hr
in
rain 24hr
in
rain mn
in
humidity
%
barometer
mb
20260507040543 47 258 0.0 0.0 0.00 0.00 0.00 74 1013.7
20260507040039 47 237 0.0 0.0 0.00 0.00 0.00 74 1013.8
20260507035535 47 248 0.0 0.0 0.00 0.00 0.00 73 1013.6
20260507035032 47 230 0.0 0.0 0.00 0.00 0.00 72 1013.6
20260507034528 47 185 0.0 0.0 0.00 0.00 0.00 71 1013.5
20260507034026 48 216 0.0 0.0 0.00 0.00 0.00 71 1013.6
20260507033524 48 223 0.0 0.0 0.00 0.00 0.00 71 1013.6
20260507033021 48 228 0.0 0.0 0.00 0.00 0.00 70 1013.5
20260507032518 48 189 0.0 0.0 0.00 0.00 0.00 71 1013.5
20260507032014 48 195 0.0 0.0 0.00 0.00 0.00 72 1013.6
20260507031510 48 250 0.0 0.0 0.00 0.00 0.00 72 1013.5
20260507031008 48 240 0.0 0.0 0.00 0.00 0.00 72 1013.7
20260507030505 48 229 0.0 0.0 0.00 0.00 0.00 72 1013.7
20260507030003 48 222 0.0 0.0 0.00 0.00 0.00 72 1013.6
20260507025459 48 210 0.0 0.0 0.00 0.00 0.00 72 1013.6
20260507024957 48 216 0.0 0.0 0.00 0.00 0.00 72 1013.2
20260507024454 48 211 0.0 0.0 0.00 0.00 0.00 72 1013.4
20260507023950 48 241 0.0 0.0 0.00 0.00 0.00 73 1013.4
20260507023447 48 219 0.0 0.0 0.00 0.00 0.00 73 1013.4
20260507022944 48 229 0.0 0.0 0.00 0.00 0.00 74 1013.4
20260507022441 48 244 0.0 0.0 0.00 0.00 0.00 74 1013.4
20260507021936 48 233 0.0 0.0 0.00 0.00 0.00 75 1013.4
20260507021432 49 258 0.0 0.0 0.00 0.00 0.00 75 1013.2
20260507020930 49 260 0.0 0.0 0.00 0.00 0.00 74 1013.0
20260507020426 49 275 0.0 0.0 0.00 0.00 0.00 73 1013.0
20260507015923 49 246 0.0 0.0 0.00 0.00 0.00 74 1013.0
20260507015422 49 239 0.0 0.0 0.00 0.00 0.00 73 1013.1
20260507014918 49 263 0.0 0.0 0.00 0.00 0.00 73 1013.0
20260507014415 50 239 0.0 0.0 0.00 0.00 0.00 73 1013.0
20260507013911 50 220 0.0 0.0 0.00 0.00 0.00 73 1013.1
20260507013408 50 234 0.0 0.0 0.00 0.00 0.00 73 1013.1
20260507012906 50 229 0.0 0.0 0.00 0.00 0.00 74 1013.0
20260507012401 50 245 0.0 0.0 0.00 0.00 0.00 74 1013.1
20260507011853 50 223 0.0 0.0 0.00 0.00 0.00 74 1013.0
20260507011349 50 249 0.0 0.0 0.00 0.00 0.00 73 1012.9
20260507010843 50 235 0.0 0.0 0.00 0.00 0.00 73 1012.8
20260507010339 50 259 0.0 0.0 0.00 0.00 0.00 72 1012.8
20260507005837 51 251 0.0 0.0 0.00 0.00 0.00 73 1012.8
20260507005333 51 264 0.0 0.0 0.00 0.00 0.00 72 1012.7
20260507004830 51 256 0.0 0.0 0.00 0.00 0.00 72 1012.7
20260507004327 51 264 0.0 0.0 0.00 0.00 0.00 70 1012.6
20260507003824 52 255 0.0 0.0 0.00 0.00 0.00 70 1012.3
20260507003321 52 257 0.0 0.0 0.00 0.00 0.00 69 1012.3
20260507002815 53 267 0.0 0.0 0.00 0.00 0.00 69 1012.5
20260507002311 53 260 0.0 0.0 0.00 0.00 0.00 68 1012.3
20260507001803 53 270 0.0 0.0 0.00 0.00 0.00 66 1012.1
20260507001300 53 286 0.0 0.0 0.00 0.00 0.00 66 1012.0
20260507000756 53 267 0.0 0.0 0.00 0.00 0.00 66 1011.9
20260507000252 53 267 1.0 1.0 0.00 0.00 0.00 66 1012.0
20260506235749 53 275 2.0 3.0 0.00 0.00 0.00 64 1012.2
20260506235244 53 278 1.0 2.0 0.00 0.00 0.00 64 1012.2
20260506234742 53 267 1.0 2.0 0.00 0.00 0.00 67 1012.0
20260506234239 53 251 0.0 0.0 0.00 0.00 0.00 68 1012.2
20260506233736 53 288 2.0 2.0 0.00 0.00 0.00 64 1012.2
20260506233233 54 281 1.0 2.0 0.00 0.00 0.00 65 1012.1
20260506232730 54 277 0.0 0.0 0.00 0.00 0.00 66 1012.1
20260506232224 54 267 2.0 3.0 0.00 0.00 0.00 60 1012.2
20260506231722 55 283 1.0 2.0 0.00 0.00 0.00 65 1012.1
20260506231220 54 268 1.0 1.0 0.00 0.00 0.00 61 1012.2
20260506230716 54 266 2.0 2.0 0.00 0.00 0.00 60 1012.1
20260506230213 55 271 1.0 2.0 0.00 0.00 0.00 62 1012.0
20260506225710 55 280 3.0 3.0 0.00 0.00 0.00 61 1012.2
20260506225207 55 294 1.0 2.0 0.00 0.00 0.00 61 1012.1
20260506224703 55 275 2.0 2.0 0.00 0.00 0.00 62 1012.1
20260506224201 55 256 2.0 3.0 0.00 0.00 0.00 61 1012.2
20260506223656 55 273 2.0 3.0 0.00 0.00 0.00 55 1012.0
20260506223152 56 260 2.0 2.0 0.00 0.00 0.00 60 1012.1
20260506222649 56 276 3.0 6.0 0.00 0.00 0.00 59 1011.9
20260506222145 56 281 2.0 2.0 0.00 0.00 0.00 52 1012.1
20260506221644 55 265 0.0 1.0 0.00 0.00 0.00 60 1012.3
20260506221141 55 258 3.0 4.0 0.00 0.00 0.00 56 1012.2
20260506220638 56 271 4.0 4.0 0.00 0.00 0.00 59 1012.2
20260506220132 56 279 4.0 6.0 0.00 0.00 0.00 58 1012.2
20260506215630 56 252 2.0 2.0 0.00 0.00 0.00 59 1012.2
20260506215125 56 282 3.0 4.0 0.00 0.00 0.00 60 1012.2
20260506214622 55 284 2.0 3.0 0.00 0.00 0.00 60 1012.0
20260506214120 56 254 1.0 2.0 0.00 0.00 0.00 61 1012.0
20260506213618 56 279 2.0 2.0 0.00 0.00 0.00 63 1012.0
20260506213115 56 261 3.0 6.0 0.00 0.00 0.00 61 1012.1
20260506212612 56 263 2.0 2.0 0.00 0.00 0.00 64 1012.1
20260506212107 55 266 1.0 1.0 0.00 0.00 0.00 65 1012.1
20260506211603 55 273 2.0 3.0 0.00 0.00 0.00 66 1012.2
20260506211100 55 261 2.0 3.0 0.00 0.00 0.00 60 1011.9
20260506210556 56 281 2.0 3.0 0.00 0.00 0.00 66 1011.8
20260506210053 56 260 2.0 2.0 0.00 0.00 0.00 59 1011.9
20260506205550 56 282 1.0 2.0 0.00 0.00 0.00 63 1011.8
20260506205045 56 245 0.0 1.0 0.00 0.00 0.00 61 1012.0
20260506204543 55 264 0.0 0.0 0.00 0.00 0.00 61 1012.0
20260506204040 55 266 1.0 2.0 0.00 0.00 0.00 56 1012.1
20260506203538 55 258 1.0 2.0 0.00 0.00 0.00 60 1012.2
20260506203034 55 262 5.0 10.0 0.00 0.00 0.00 62 1012.2
20260506202532 55 290 2.0 3.0 0.00 0.00 0.00 58 1012.0
20260506202028 55 282 3.0 4.0 0.00 0.00 0.00 61 1012.0
20260506201526 54 270 1.0 2.0 0.00 0.00 0.00 63 1012.1
20260506201022 54 264 1.0 2.0 0.00 0.00 0.00 63 1012.1
20260506200518 55 266 2.0 3.0 0.00 0.00 0.00 62 1012.0
20260506200015 54 255 0.0 1.0 0.00 0.00 0.00 61 1012.2
20260506195512 54 280 2.0 2.0 0.00 0.00 0.00 63 1012.1
20260506195008 54 269 1.0 2.0 0.00 0.00 0.00 61 1012.1
20260506194506 54 266 1.0 1.0 0.00 0.00 0.00 64 1012.2
20260506194002 55 248 2.0 3.0 0.00 0.00 0.00 67 1012.0
20260506193500 55 270 0.0 0.0 0.00 0.00 0.00 70 1012.2
20260506192956 54 266 1.0 2.0 0.00 0.00 0.00 66 1012.3
20260506192453 54 262 1.0 2.0 0.00 0.00 0.00 69 1012.3
20260506191944 54 259 0.0 1.0 0.00 0.00 0.00 72 1012.1
20260506191441 54 255 0.0 0.0 0.00 0.00 0.00 70 1012.2
20260506190937 54 268 1.0 2.0 0.00 0.00 0.00 71 1012.3
20260506190434 54 256 0.0 0.0 0.00 0.00 0.00 71 1012.5
20260506185931 54 245 0.0 0.0 0.00 0.00 0.00 70 1012.4
20260506185428 54 252 0.0 1.0 0.00 0.00 0.00 74 1012.3
20260506184925 54 265 0.0 0.0 0.00 0.00 0.00 72 1012.4
20260506184422 54 242 0.0 0.0 0.00 0.00 0.00 71 1012.1
20260506183919 53 267 0.0 0.0 0.00 0.00 0.00 73 1012.4
20260506183420 53 244 0.0 0.0 0.00 0.00 0.00 75 1012.2
20260506182912 53 276 0.0 0.0 0.00 0.00 0.00 74 1012.3
20260506182409 54 246 0.0 0.0 0.00 0.00 0.00 76 1012.2
20260506181907 53 266 0.0 0.0 0.00 0.00 0.00 75 1012.3
20260506181404 53 266 1.0 1.0 0.00 0.00 0.00 74 1012.3
20260506180901 53 196 0.0 0.0 0.00 0.00 0.00 73 1012.3
20260506180357 53 248 0.0 0.0 0.00 0.00 0.00 73 1012.3
20260506175854 53 175 0.0 0.0 0.00 0.00 0.00 72 1012.3
20260506175350 53 193 0.0 0.0 0.00 0.00 0.00 72 1012.5
20260506174848 53 216 0.0 0.0 0.00 0.00 0.00 73 1012.5
20260506174345 53 165 0.0 0.0 0.00 0.00 0.00 73 1012.3
20260506173843 53 162 0.0 0.0 0.00 0.00 0.00 71 1012.4
20260506173339 53 165 0.0 0.0 0.00 0.00 0.00 71 1012.4
20260506172836 53 163 0.0 0.0 0.00 0.00 0.00 72 1012.5
20260506172333 53 174 0.0 0.0 0.00 0.00 0.00 71 1012.7
20260506171830 53 161 0.0 0.0 0.00 0.00 0.00 72 1012.3
20260506171327 54 170 0.0 0.0 0.00 0.00 0.00 70 1012.7
20260506170825 53 189 0.0 0.0 0.00 0.00 0.00 68 1012.3
20260506170320 53 186 0.0 0.0 0.00 0.00 0.00 71 1012.1
20260506165820 53 212 0.0 0.0 0.00 0.00 0.00 70 1012.1
20260506165317 54 128 0.0 0.0 0.00 0.00 0.00 70 1012.5
20260506164813 53 127 0.0 0.0 0.00 0.00 0.00 72 1012.3
20260506164310 53 342 0.0 0.0 0.00 0.00 0.00 70 1012.2
20260506163808 53 224 0.0 0.0 0.00 0.00 0.00 72 1012.0
20260506163302 53 76 0.0 0.0 0.00 0.00 0.00 72 1012.3
20260506162758 53 315 0.0 0.0 0.00 0.00 0.00 73 1012.2
20260506162256 53 247 0.0 0.0 0.00 0.00 0.00 74 1011.9
20260506161752 53 180 0.0 0.0 0.00 0.00 0.00 73 1011.9
20260506161250 53 179 0.0 0.0 0.00 0.00 0.00 72 1012.1
20260506160747 53 142 0.0 0.0 0.00 0.00 0.00 75 1011.8
20260506160243 52 215 0.0 0.0 0.00 0.00 0.00 73 1012.3
20260506155743 52 286 0.0 0.0 0.00 0.00 0.00 75 1012.2
20260506155239 52 194 0.0 0.0 0.00 0.00 0.00 73 1012.3
20260506153347 52 273 0.0 0.0 0.00 0.00 0.00 72 1012.0
20260506152844 52 311 0.0 0.0 0.00 0.00 0.00 74 1012.1
20260506152341 53 266 0.0 0.0 0.00 0.00 0.00 77 1012.1
20260506151839 52 179 0.0 0.0 0.00 0.00 0.00 76 1011.9
20260506151335 53 272 0.0 0.0 0.00 0.00 0.00 77 1011.9
20260506150833 52 299 0.0 0.0 0.00 0.00 0.00 77 1012.0
20260506150330 52 273 0.0 0.0 0.00 0.00 0.00 78 1011.8
20260506145826 52 294 0.0 0.0 0.00 0.00 0.00 77 1012.1
20260506145323 52 297 1.0 2.0 0.00 0.00 0.00 79 1011.9
20260506144820 52 263 0.0 1.0 0.00 0.00 0.00 80 1011.9
20260506144317 52 301 0.0 0.0 0.00 0.00 0.00 77 1011.8
20260506143815 52 336 0.0 0.0 0.00 0.00 0.00 77 1011.8
20260506143312 52 347 1.0 1.0 0.00 0.00 0.00 76 1012.2
20260506142810 52 325 0.0 0.0 0.00 0.00 0.00 77 1011.7
20260506142308 52 292 0.0 0.0 0.00 0.00 0.00 76 1011.7
20260506141806 52 322 0.0 0.0 0.00 0.00 0.00 76 1011.8
20260506141304 51 304 0.0 0.0 0.00 0.00 0.00 77 1011.6
20260506140801 51 107 0.0 0.0 0.00 0.00 0.00 78 1011.6
20260506140258 51 354 0.0 0.0 0.00 0.00 0.00 79 1011.5
20260506135755 51 237 0.0 0.0 0.00 0.00 0.00 80 1011.8
20260506135251 51 302 0.0 0.0 0.00 0.00 0.00 79 1011.6
20260506134748 51 227 0.0 0.0 0.00 0.00 0.00 79 1011.6
20260506134244 51 227 0.0 0.0 0.00 0.00 0.00 80 1011.2
20260506133742 50 309 0.0 0.0 0.00 0.00 0.00 82 1011.3
20260506133238 51 276 0.0 0.0 0.00 0.00 0.00 83 1011.0
20260506132735 50 220 0.0 0.0 0.00 0.00 0.00 83 1011.0
20260506132232 50 282 0.0 0.0 0.00 0.00 0.00 84 1011.2
20260506131730 50 269 0.0 0.0 0.00 0.00 0.00 85 1011.2
20260506131226 49 259 0.0 0.0 0.00 0.00 0.00 84 1011.5
20260506130723 50 270 0.0 0.0 0.00 0.00 0.00 85 1011.2
20260506130220 49 282 0.0 0.0 0.00 0.00 0.00 84 1011.1
20260506125718 49 280 0.0 0.0 0.00 0.00 0.00 87 1011.1
20260506125216 49 283 0.0 0.0 0.00 0.00 0.00 87 1011.0
20260506124713 49 264 0.0 0.0 0.00 0.00 0.00 89 1010.9
20260506124211 48 288 0.0 0.0 0.00 0.00 0.00 89 1011.1
20260506123708 48 272 0.0 0.0 0.00 0.00 0.00 91 1010.9
20260506123207 48 249 0.0 0.0 0.00 0.00 0.00 94 1011.0
20260506122703 47 237 0.0 0.0 0.00 0.00 0.00 96 1010.7
20260506122201 47 252 0.0 0.0 0.00 0.00 0.00 99 1010.8
20260506121659 46 279 0.0 0.0 0.00 0.00 0.00 99 1010.7
20260506121155 46 251 0.0 0.0 0.00 0.00 0.00 99 1010.3
20260506120653 46 270 0.0 0.0 0.00 0.00 0.00 99 1010.3
20260506120150 46 243 0.0 0.0 0.00 0.00 0.00 99 1010.2
20260506115648 45 266 0.0 0.0 0.00 0.00 0.00 99 1010.0
20260506115146 45 226 0.0 0.0 0.00 0.00 0.00 99 1010.1
20260506114643 45 219 0.0 0.0 0.00 0.00 0.00 99 1009.9
20260506114141 45 202 0.0 0.0 0.00 0.00 0.00 99 1010.1
20260506113640 45 251 0.0 0.0 0.00 0.00 0.00 99 1010.2
20260506113136 45 220 0.0 0.0 0.00 0.00 0.00 99 1010.1
20260506112632 45 247 0.0 0.0 0.00 0.00 0.00 99 1009.9
20260506112130 45 182 0.0 0.0 0.00 0.00 0.00 99 1009.9
20260506111628 45 170 0.0 0.0 0.00 0.00 0.00 99 1009.7
20260506111125 45 170 0.0 0.0 0.00 0.00 0.00 99 1009.6
20260506110622 45 170 0.0 0.0 0.00 0.00 0.00 99 1009.6
20260506110120 45 170 0.0 0.0 0.00 0.00 0.00 99 1009.4
20260506105616 45 170 0.0 0.0 0.00 0.00 0.00 99 1009.1
20260506105113 45 170 0.0 0.0 0.00 0.00 0.00 99 1008.7
20260506104611 45 170 0.0 0.0 0.00 0.00 0.00 99 1008.5
20260506104108 45 171 0.0 0.0 0.00 0.00 0.00 99 1009.0
20260506103606 45 155 0.0 0.0 0.00 0.00 0.00 99 1009.0
20260506103102 45 155 0.0 0.0 0.00 0.00 0.00 99 1008.9
20260506102601 45 155 0.0 0.0 0.00 0.00 0.00 99 1008.9
20260506102058 45 155 0.0 0.0 0.00 0.00 0.00 99 1008.9
20260506101554 45 155 0.0 0.0 0.00 0.00 0.00 99 1008.7
20260506101051 45 155 0.0 0.0 0.00 0.00 0.00 99 1008.7
20260506100550 45 155 0.0 0.0 0.00 0.00 0.00 99 1008.9
20260506100047 45 155 0.0 0.0 0.00 0.00 0.00 99 1009.0
20260506095546 45 154 0.0 0.0 0.00 0.00 0.00 99 1008.8
20260506095042 45 154 0.0 0.0 0.00 0.00 0.00 99 1008.5
20260506094540 45 154 0.0 0.0 0.00 0.00 0.00 99 1008.3
20260506094038 45 154 0.0 0.0 0.00 0.00 0.00 99 1008.6
20260506093536 45 154 0.0 0.0 0.00 0.00 0.00 99 1008.5
20260506093033 45 154 0.0 0.0 0.00 0.00 0.00 99 1008.3
20260506092531 45 154 0.0 0.0 0.00 0.00 0.00 99 1008.4
20260506092027 45 154 0.0 0.0 0.00 0.00 0.00 99 1008.7
20260506091526 45 154 0.0 0.0 0.00 0.00 0.00 99 1008.0
20260506091022 45 154 0.0 0.0 0.00 0.00 0.00 99 1008.3
20260506090520 45 154 0.0 0.0 0.00 0.00 0.00 99 1008.1
20260506090016 45 154 0.0 0.0 0.00 0.00 0.00 99 1008.2
20260506085513 45 154 0.0 0.0 0.00 0.00 0.00 99 1007.9
20260506085009 45 154 0.0 0.0 0.00 0.00 0.00 99 1008.1
20260506084507 45 154 0.0 0.0 0.00 0.00 0.00 99 1008.1
20260506084002 45 154 0.0 0.0 0.00 0.00 0.00 99 1008.0
20260506083500 45 154 0.0 0.0 0.00 0.00 0.00 99 1008.2
20260506082957 45 158 0.0 0.0 0.00 0.00 0.00 99 1008.1
20260506082454 45 157 0.0 0.0 0.00 0.00 0.00 99 1008.0
20260506081949 45 156 0.0 0.0 0.00 0.00 0.00 99 1008.2
20260506081448 45 161 0.0 0.0 0.00 0.00 0.00 99 1008.2
20260506080945 45 151 0.0 0.0 0.00 0.00 0.00 99 1007.9
20260506080442 45 164 0.0 0.0 0.00 0.00 0.00 99 1008.1
20260506073426 45 145 0.0 0.0 0.00 0.00 0.00 99 1007.4
20260506072923 45 143 0.0 0.0 0.00 0.00 0.00 99 1007.5
20260506072420 45 143 0.0 0.0 0.00 0.00 0.00 99 1007.4
20260506071918 45 144 0.0 0.0 0.00 0.00 0.00 99 1007.7
20260506071416 45 139 0.0 0.0 0.00 0.00 0.00 99 1008.1
20260506070912 45 139 0.0 0.0 0.00 0.00 0.00 99 1008.2
20260506070409 45 139 0.0 0.0 0.00 0.00 0.00 99 1008.1
20260506062347 44 100 0.0 0.0 0.00 0.00 0.00 99 1007.4
20260506061843 44 109 0.0 0.0 0.00 0.00 0.00 99 1007.8
20260506061339 44 130 0.0 0.0 0.00 0.00 0.00 99 1007.8
20260506060837 44 131 0.0 0.0 0.00 0.00 0.00 99 1008.0
20260506060335 44 106 0.0 0.0 0.00 0.00 0.00 99 1008.1
20260506051307 45 73 0.0 0.0 0.00 0.00 0.00 99 1008.8
20260506050805 45 167 0.0 0.0 0.00 0.00 0.00 99 1009.3
20260506050302 45 174 0.0 0.0 0.00 0.00 0.00 99 1008.9
20260506044752 45 18 0.0 0.0 0.00 0.00 0.00 99 1008.3
20260506044250 45 100 0.0 0.0 0.00 0.00 0.00 99 1008.4
20260506043747 45 34 0.0 0.0 0.00 0.00 0.00 99 1008.2
20260506043244 46 102 0.0 0.0 0.00 0.00 0.00 99 1008.3
20260506042743 45 94 0.0 0.0 0.00 0.00 0.00 99 1008.2
20260506042242 45 32 0.0 0.0 0.00 0.00 0.00 99 1008.0
20260506041739 45 124 0.0 0.0 0.00 0.00 0.00 99 1007.9
20260506041236 45 133 0.0 0.0 0.00 0.00 0.00 99 1008.2